Regional Weather Roundup
Issued by NWS

Home | Current Version | Previous Version | Graphics & Text | Print | Product List | Glossary On
Versions: 1 2 3 4 5 6 7 8 9 10 11 12 13 14 15 16 17 18 19 20 21 22 23 24 25 26 27 28 29 30 31 32 33 34 35 36 37 38 39 40 41 42 43 44 45 46 47 48 49 50
000
ASUS43 KIND 302359
RWRIN

WEATHER ROUNDUP FOR INDIANA
NATIONAL WEATHER SERVICE INDIANAPOLIS IN
800 PM EDT FRI SEP 30 2016

NOTE: "FAIR" INDICATES FEW OR NO CLOUDS BELOW 12,000 FEET WITH NO
SIGNIFICANT WEATHER AND/OR OBSTRUCTIONS TO VISIBILITY.

* - STATION DOES NOT REPORT WEATHER SUCH AS PRECIPITATION OR FOG.

+ - STATION NOT QUALITY CONTROLLED BY THE NATIONAL WEATHER SERVICE.
    USE DATA WITH CAUTION...ESPECIALLY DEWPOINT AND RELATIVE
    HUMIDITY OBSERVATIONS.

INZ001>003-010>013-019-020-010100-
NORTHWEST INDIANA

CITY           SKY/WX    TMP DP  RH WIND       PRES   REMARKS
GARY /AIRPORT/ LGT RAIN  63  61  94 NE12G23   30.07S

$$

LMZ046-743>745-010100-
SOUTHERN LAKE MICHIGAN

STATION/POSITION TIME  TEMP    WIND        PRES    WAVE
                       AIR SEA DIR/SP/G            HT
                 (UTC) (F)     (DEG/KT/KT) (MB)    (FT)
BURNS HARBOR     2340   62      50/ 19/ 23 1017.6F
MICHIGAN CITY    2330   61      20/ 17/ 18   N/A
5NW MICH CITY    2350   62 64   40/ 14/ 19   N/A     5

$$

INZ004-005-014>016-021>024-010100-
NORTH CENTRAL INDIANA

CITY           SKY/WX    TMP DP  RH WIND       PRES   REMARKS
GOSHEN         CLOUDY    61  57  87 N15G22    30.01F
6HR MIN TEMP:  61; 6HR MAX TEMP:  65; 6HR PCP:  1.38;

SOUTH BEND     CLOUDY    60  58  92 NE8       30.06F
6HR MIN TEMP:  60; 6HR MAX TEMP:  65; 6HR PCP:  0.08;


$$

INZ006>009-017-018-025>027-010100-
NORTHEAST INDIANA

CITY           SKY/WX    TMP DP  RH WIND       PRES   REMARKS
ANGOLA *+        N/A     59  48  67 NE9       30.04F
FORT WAYNE     MOCLDY    59  57  93 E6        30.03S
6HR MIN TEMP:  59; 6HR MAX TEMP:  65; 6HR PCP:  0.04;

KENDALLVILLE + LGT RAIN  60  59  97 NE8       30.03F

$$

INZ028-029-035-036-043>045-051>053-010100-
WEST CENTRAL INDIANA

CITY           SKY/WX    TMP DP  RH WIND       PRES   REMARKS
CRAWFORDSVL +  LGT RAIN  58  58 100 NE3       29.99S
6HR MIN TEMP:  57; 6HR MAX TEMP:  64;

LAFAYETTE      CLOUDY    62  60  93 NE9       29.99S
6HR MIN TEMP:  62; 6HR MAX TEMP:  67; 6HR PCP: TRACE;

TERRE HAUTE    CLOUDY    61  59  93 CALM      29.99S
6HR MIN TEMP:  61; 6HR MAX TEMP:  70; 6HR PCP:  0.11;


$$

INZ030>032-037>040-046>048-054>057-064-065-010100-
CENTRAL INDIANA

CITY           SKY/WX    TMP DP  RH WIND       PRES   REMARKS
COLUMBUS       CLEAR     57  54  88 S5        30.00R
INDIANAPOLIS   CLOUDY    62  60  93 E3        29.98S
6HR MIN TEMP:  60; 6HR MAX TEMP:  68; 6HR PCP:  0.25;

-EAGLE CREEK   PTCLDY    61  58  90 NE3       29.98R
6HR MIN TEMP:  60; 6HR MAX TEMP:  68; 6HR PCP:  0.03;

KOKOMO *+      CLOUDY    61  57  88 NE7       30.01S
6HR MIN TEMP:  61; 6HR MAX TEMP:  66; 6HR PCP: 10.00;

MT COMFORT *+  CLOUDY    59  57  94 CALM      30.00R
SHELBYVILLE    CLOUDY    63  54  72 S9        29.98R
6HR MIN TEMP:  63; 6HR MAX TEMP:  71;


$$

INZ033-034-041-042-049-050-058-059-010100-
EAST CENTRAL INDIANA

CITY           SKY/WX    TMP DP  RH WIND       PRES   REMARKS
MUNCIE         LGT RAIN  61  60  97 E7        30.00S
6HR MIN TEMP:  57; 6HR MAX TEMP:  68; 6HR PCP:  1.07;


$$

INZ060-061-067>069-081>083-085>088-010100-
SOUTHWEST INDIANA

CITY           SKY/WX    TMP DP  RH WIND       PRES   REMARKS
EVANSVILLE     HVY RAIN  59  56  89 W3        30.01S FOG
6HR MIN TEMP:  59; 6HR MAX TEMP:  72; 6HR PCP:  0.23;

HUNTINGBURG *+   N/A     59  52  77 S7        30.00S
6HR MIN TEMP:  59; 6HR MAX TEMP:  68;


$$

INZ062-063-066-070>080-084-089>092-010100-
SOUTH CENTRAL AND SOUTHEAST INDIANA

CITY           SKY/WX    TMP DP  RH WIND       PRES   REMARKS
BLOOMINGTON    CLOUDY    59  53  80 VRB3      30.00R
6HR MIN TEMP:  59; 6HR MAX TEMP:  70; 6HR PCP: TRACE;

MADISON *+     PTCLDY    59  50  72 S3        30.03S
SEYMOUR +      CLEAR     59  52  77 CALM      30.00S

$$




USA.gov is the U.S. government's official web portal to all federal, state and local government web resources and services.